Find Starlink 3054

NORAD ID: 49167 Int'l Des: 2021-082 Owner: SPXS Country: US Constellation: starlink operational
LEOCIRCULAR

当前视图

正在加载3D地球...

About Starlink 3054

Starlink 3054 (NORAD 49167) is a starlink constellation satellite (v1.5) launched Sep 14, 2021 by SPXS of US. It operates in LEO, CIRCULAR orbit with a mass of 297.00 kg.

关于 Starlink 3054

正在加载描述...

即将过境

Passes for default location (London). Set your location on the main map for personalized predictions.

高度历史

Loading altitude history...

两行轨道根数

1 49167U 21082AP 26194.77347271 -.00000410 00000-0 -26598-4 0 9991
2 49167 70.0007 336.5470 0003190 267.3150 92.7644 14.98327873266062
Epoch: Jul 13, 2026 • Age: 15 hours

当前状态

高度 581.9 km
远地点 / 近地点 N/A
速度 7.57 km/s
星下点 -31.32°S, 86.38°E
发射日期 Sep 14, 2021
运行时间 4.8 years
类型 internet

技术详情

分类 Payload
质量 297.00 kg
干质量 275.00 kg
总质量 297.00 kg
长度 0.20 m
直径 2.80 m
跨度 9.00 m
形状 Box + pan
制造商 SPXS
平台类型 Starlink
阶段状态 In Orbit
所有者/国家 SPXS/US

Most Searched